Regional Weather Roundup
Issued by NWS

Home | Current Version | Previous Version | Text Only | Print | Product List | Glossary Off
Versions: 1 2 3 4 5 6 7 8 9 10 11 12 13 14 15 16 17 18 19 20 21 22 23 24 25 26 27 28 29 30 31 32 33 34 35 36 37 38 39 40 41 42 43 44 45 46 47 48 49 50

000
ASUS43 KDTX 051010
RWRMI
MICHIGAN HOURLY REGIONAL WEATHER ROUNDUP
NATIONAL WEATHER SERVICE DETROIT/PONTIAC MI
600 AM EDT SAT SEP 05 2015

NOTE: "FAIR" INDICATES FEW OR NO CLOUDS BELOW 12,000 FEET WITH NO
SIGNIFICANT WEATHER AND/OR OBSTRUCTION TO VISIBILITY.

MIZ047>049-052>055-059>063-066>070-074>076-081>083-051100-
SOUTHEAST LOWER MICHIGAN

CITY           SKY/WX    TMP DP  RH WIND       PRES   REMARKS
ADRIAN         CLEAR     66  64  93 CALM      30.12R
ALMA           FOG       63  63 100 CALM      30.10S VSB 1/2
ANN ARBOR      PTCLDY    64  63  96 CALM      30.11R FOG
BAD AXE        LGT RAIN  68  67  96 S5        30.12R
DETROIT CITY   MOCLDY    69  67  93 CALM      30.11R FOG
DETROIT        MOCLDY    69  67  93 CALM      30.11S FOG
FLINT          FOG       70  67  90 S6        30.11R VSB 1/4
GROSSE ILE     MOCLDY    70  66  88 CALM      30.10R
HILLSDALE      CLEAR     66  66  98 CALM      30.12R
HOWELL         FOG       66  65  99 CALM      30.10S VSB 3/4

CITY           SKY/WX    TMP DP  RH WIND       PRES   REMARKS
JACKSON        CLEAR     68  66  93 CALM      30.11R
LAMBERTVILLE   MOCLDY    68  65  90 CALM      30.12R
LANSING        CLOUDY    68  67  96 S3        30.10R FOG
LAPEER         NOT AVBL
MASON          MOCLDY    67  64  92 CALM      30.11R FOG
MONROE         PTCLDY    66  65  97 CALM      30.11R FOG
MT. CLEMENS    CLOUDY    70  68  94 CALM      30.11R
PONTIAC        MOCLDY    69  68  96 CALM      30.12  FOG
PORT HOPE        N/A     69  62  78 S5        30.10R
PORT HURON     CLOUDY    68  68 100 CALM      30.12R FOG
TRI CITIES     FOG       66  64  93 CALM      30.10R VSB 1/16
YPSILANTI      MOCLDY    70  65  84 E6        30.12R HAZE
$$
MIZ043>046-050>051-056>058-064>065-071>073-077>080-051100-
SOUTHWEST LOWER MICHIGAN

CITY           SKY/WX    TMP DP  RH WIND       PRES   REMARKS
BATTLE CREEK   PTCLDY    69  66  90 S5        30.11R
BENTON HARBOR  MOCLDY    68  66  93 SE5       30.09R
BIG RAPIDS     FOG       66  66  98 CALM      30.10R VSB 1/4
COLDWATER      MOCLDY    65  64  98 CALM      30.11R
HOLLAND        FOG       65  63  93 CALM      30.09S VSB 1/2
GRAND RAPIDS   CLOUDY    66  65  96 CALM      30.10R FOG
KALAMAZOO      MOCLDY    70  66  87 S3        30.10R
MARSHALL       CLEAR     66  65  95 CALM      30.10R
MUSKEGON       CLOUDY    68  65  90 CALM      30.09R
$$
MIZ016>042-051100-
NORTHERN LOWER MICHIGAN

CITY           SKY/WX    TMP DP  RH WIND       PRES   REMARKS
ALPENA         CLOUDY    69  65  86 E3        30.10R
BEAVER ISLAND  MOCLDY    65  64  97 CALM      30.07S FOG
BELLAIRE       FOG       65  64  96 CALM      30.08R VSB 1/2
CADILLAC       FOG       66  66  98 CALM      30.10R VSB 1/2
CHARLEVOIX     MOCLDY    67  67 100 CALM      30.10R FOG
FRANKFORT      CLOUDY    68  68 100 SW3       30.08R FOG
GAYLORD        CLOUDY    67  67 100 S3        30.11R FOG
GRAYLING       CLOUDY    67  66  99 CALM      30.11R FOG
HARBOR SPRINGS CLOUDY    67  65  96 E3        30.08R
HOUGHTON LAKE  CLOUDY    68  66  93 S3        30.11R
MANISTEE       CLOUDY    66  63  88 CALM      30.09R VSB 1/4
OSCODA         CLOUDY    69  67  93 SE5       30.09R
PELLSTON       CLOUDY    64  63  96 CALM      30.09R
TRAVERSE CITY  MOCLDY    67  65  93 CALM      30.07R
$$
MIZ007>008-015-051100-
EASTERN UPPER MICHIGAN

CITY           SKY/WX    TMP DP  RH WIND       PRES   REMARKS
KINROSS        CLEAR     64  63  94 E8        30.09S
MACKINAC ISLAN CLOUDY    65  64  96 E5        30.08S FOG
NEWBERRY       PTCLDY    62  61  99 N3        30.09R FOG
S. S. MARIE    CLEAR     65  60  84 NE3       30.10R
$$
MIZ004>006-011>014-085-051100-
CENTRAL UPPER MICHIGAN

CITY           SKY/WX    TMP DP  RH WIND       PRES   REMARKS
MANISTIQUE     CLOUDY    65  64  96 CALM      30.06S
ESCANABA       CLOUDY    66  64  94 W3        30.06R
MENOMINEE      CLOUDY    64  63  94 CALM      30.07R
SAWYER-GWINN   FOG       64  63  96 S3        30.08R VSB 1/2
$$
MIZ001>003-009>011-084-051100-
WESTERN UPPER MICHIGAN

CITY           SKY/WX    TMP DP  RH WIND       PRES   REMARKS
IRON MOUNTAIN  FOG       63  62  97 CALM      30.07S VSB 1/4
HOUGHTON       CLEAR     62  61  96 CALM      30.05R FOG
COPPER HARBOR    N/A     66  63  90 SW7       30.03F
IRONWOOD       PTCLDY    68  64  88 S3        30.00R
$$

ABBREVIATIONS USED IN REMARKS
   TC - TEMPERATURE IN CELSIUS
  WCI - WIND CHILL INDEX
   HX - HEAT INDEX
  VSB - VISIBILITY



USA.gov is the U.S. government's official web portal to all federal, state and local government web resources and services.